Preview of NWS' New Version of Forecast
This preview is not operational and should not be used for support decisions.

Regional Weather Roundup (RWR)

Issued by National Weather Service (NWS)

                            
774 
ASUS42 KTBW 262116
RWRFL 
FLORIDA REGIONAL WEATHER ROUNDUP
NATIONAL WEATHER SERVICE TAMPA BAY RUSKIN FL
500 PM EDT TUE MAR 26 2019

NOTE: "FAIR" INDICATES FEW OR NO CLOUDS BELOW 12,000 FEET WITH NO
SIGNIFICANT WEATHER AND/OR OBSTRUCTIONS TO VISIBILITY.

FLZ001>010-012>015-112-114-115-262200-
PANHANDLE FLORIDA
  
CITY           SKY/WX    TMP DP  RH WIND       PRES   REMARKS
PENSACOLA      CLOUDY    65  46  50 NW17G24   30.11R                  
PENSACOLA NAS  PTSUNNY   66  48  52 NW15G22   30.09S                  
MILTON NAS     PTSUNNY   59  47  64 N15G21    30.12R                  
CRESTVIEW      CLOUDY    60  46  59 N9G18     30.11S                  
DUKE FIELD     CLOUDY    62  46  56 N16       30.08R                  
VALPARAISO     CLOUDY    67  47  47 N17G24    30.06S                  
MARY ESTHER    PTSUNNY   67  46  47 NW16G25   30.06S                  
PANAMA CITY    CLOUDY    72  48  42 NW13G24   30.03S                  
TYNDALL AFB    FAIR      71  48  43 NW14      30.02S                  
APALACHICOLA   FAIR      72  54  53 NW17G23   29.99F                  

STATION/POSITION SKY/WX   TEMP    WIND        PRES    WAVE   SWELL
                          AIR SEA DIR/SP/G            HT/PER HT/PER
                          (F)     (DEG/KT/KT) (MB)    (FT/S) (FT/S)
30.1N   87.6W                                 1019.3F   3/ 4
29.2N   88.2W                     330/ 17/ 21 1020.5F   4/ 5
PANAMA CITY BEAC           69 65              1017.3F
TOWER C                    64     300/ 22/ 23 1016.4F

$$
FLZ011-016>038-118-127-128-134-139-239-262200-
NORTH FLORIDA
  
CITY           SKY/WX    TMP DP  RH WIND       PRES   REMARKS
MARIANNA       PTSUNNY   71  48  43 NW14G21   30.02S                  
TALLAHASSEE    FAIR      74  50  42 N8        29.99S                  
PERRY          FAIR      78  48  34 NW9       29.97F                  
LIVE OAK       MOSUNNY   77  48  36 VRB5      29.96F                  
CROSS CITY     FAIR      77  54  44 W12       29.96F                  
LAKE CITY      FAIR      73  48  40 N5        29.97S                  
GAINESVILLE    FAIR      83  50  31 NW7       29.97F                  
WILLISTON        N/A    N/A N/A N/A MISG        N/A                   
PALATKA        FAIR      72  59  64 E14G20    29.98R                  
MAYPORT NAS    FAIR      67  57  70 NE20      30.01S                  
JACKSONVILLE   FAIR      68  53  58 E20       30.00R                  
JAX NAS        PTSUNNY   68  53  58 NE16G25   30.01R                  
JAX CECIL      MOSUNNY  N/A N/A N/A E8        29.99R                  
FERNANDINA BEA FAIR      66  56  68 E20G26    30.02S                  
ST AUGUSTINE   CLOUDY    64  57  77 NE14      30.02R                  
PALM COAST     MOSUNNY   70  57  64 NE12G23   29.98F                  

STATION/POSITION SKY/WX   TEMP    WIND        PRES    WAVE   SWELL
                          AIR SEA DIR/SP/G            HT/PER HT/PER
                          (F)     (DEG/KT/KT) (MB)    (FT/S) (FT/S)
SHELL POINT      NOT AVBL
KEATON BEACH               68     250/ 13/ 14 1015.4F
CEDAR KEY                  69     260/ 10/ 11 1015.5F
FERNANDINA                 66 66              1017.2R
30.7N   81.3W                 65                N/A     3/ 4
MAYPORT                    62 64              1016.3F
31.4N   80.9W              61 63   60/ 19/ 23 1017.2R   2/ 4
ST AUGUSTINE               63 67   30/ 19/ 20 1016.0R

$$
FLZ040-043>046-052-053-057-058-063-144-262200-
INTERIOR CENTRAL FLORIDA
  
CITY           SKY/WX    TMP DP  RH WIND       PRES   REMARKS
OCALA          FAIR      80  55  42 W14G20    29.95F                  
LEESBURG       FAIR      79  53  40 W14G21    29.96S                  
SANFORD        PTSUNNY   72  62  71 NE16      29.96R                  
ORLANDO EXEC   FAIR      83  54  36 W12       29.94S                  
ORLANDO INTL   PTSUNNY   80  55  42 W12       29.94S                  
KISSIMMEE      PTSUNNY   82  58  43 NW9       29.95F                  
WINTER HAVEN   PTSUNNY   82  59  45 NW10G18   29.96F                  
LAKELAND       MOSUNNY   79  59  50 W10G16    29.97F                  
BARTOW         PTSUNNY   82  57  42 NW12      29.95F                  
SEBRING        FAIR      83  57  40 NW12G18   29.95S                  
OKEECHOBEE     FAIR      82  54  36 NW5       29.93F                  

$$
FLZ041-047-054-059-064-141-147-262200-
EAST CENTRAL FLORIDA
  
CITY           SKY/WX    TMP DP  RH WIND       PRES   REMARKS
ORMOND BEACH   MOSUNNY   68  63  83 NE13G20   29.98S                  
DAYTONA BEACH  PTSUNNY   70  61  73 NE15      29.99R                  
DELAND         LGT RAIN  68  59  73 E12       29.97R                  
NEW SMYRNA BEA MOSUNNY   68  57  68 NE12      30.00R                  
JFK SPACE CTR  FAIR      72  61  67 NE9       29.96S                  
TITUSVILLE     PTSUNNY   79  61  53 NE17      29.97S                  
CAPE CANAVERAL FAIR      74  60  62 NE9G17    29.95S                  
PATRICK AFB    FAIR      73  63  70 NE12      29.96R                  
MELBOURNE      PTSUNNY   73  60  63 NE10      29.96S                  
VERO BEACH     FAIR      76  61  59 E12       29.95F                  
FT PIERCE      FAIR      74  61  63 E9        29.94F                  
STUART         MOSUNNY   81  66  61 E12       29.95F                  

STATION/POSITION SKY/WX   TEMP    WIND        PRES    WAVE   SWELL
                          AIR SEA DIR/SP/G            HT/PER HT/PER
                          (F)     (DEG/KT/KT) (MB)    (FT/S) (FT/S)
28.5N   80.2W              72      30/ 14/ 16 1014.9F   3/ 5   2/ 7
28.9N   78.5W              72 74  330/ 12/ 14 1015.3R   4/ 6   3/ 6
TRIDENT PIER               74 69              1015.4F
28.4N   80.5W                 70                N/A     2/ 4
27.5N   80.2W                 74                N/A     2/ 8

$$
FLZ050-056-061-142-242-148-248-149-249-151-251-155-255-
160-260-262200-
WEST CENTRAL FLORIDA
  
CITY           SKY/WX    TMP DP  RH WIND       PRES   REMARKS
CRYSTAL RIVER  FAIR      75  59  57 W10       29.99S                  
INVERNESS      FAIR      79  55  44 W6        29.98S                  
BROOKSVILLE    FAIR      78  58  49 W16       29.99S                  
CLEARWATER AIR FAIR      72  63  73 W9        30.00S                  
ST PETE CLEARW FAIR      74  62  66 NW13      29.99S                  
TAMPA INTL     FAIR      77  62  59 W13       29.99S                  
TAMPA EXEC     FAIR      79  61  53 NW10      29.99R                  
PLANT CITY     FAIR      81  59  47 W9G17     29.99S                  
MACDILL AFB    FAIR      75  63  64 NW9       29.99S                  
PETER O KNIGHT PTSUNNY   77  64  65 W7        29.99S                  
ST PETERSBURG  PTSUNNY   74  64  71 N9        29.97F                  
SARASOTA       FAIR      75  64  68 W13       29.98F                  
VENICE         FAIR      77  66  69 NW15      30.00F                  

STATION/POSITION SKY/WX   TEMP    WIND        PRES    WAVE   SWELL
                          AIR SEA DIR/SP/G            HT/PER HT/PER
                          (F)     (DEG/KT/KT) (MB)    (FT/S) (FT/S)
27.3N   84.2W                 73                N/A     2/ 4
CLEARWATER BEACH           70 73              1016.0F
MIDDLE TAMPA BAY           71                 1016.0F
VENICE                     71 72  320/ 16/ 17 1015.6F

$$
FLZ066-069-070-075>078-162-262-165-265-262200-
SOUTHWEST FLORIDA AND KEYS
  
CITY           SKY/WX    TMP DP  RH WIND       PRES   REMARKS
PUNTA GORDA    FAIR      81  58  45 W16       29.98F                  
FT MYERS       FAIR      82  52  35 NW16      29.96S                  
SOUTHWEST INTL FAIR      82  53  36 W12       29.96F                  
NAPLES         FAIR      77  66  68 W10       29.98F                  
MARCO ISLAND   FAIR      79  67  66 W9        29.98F                  
IMMOKALEE      FAIR      84  63  48 W12G17    29.93F                  
MARATHON       FAIR      82  64  54 NW7       29.97F                  
KEY WEST NAS   FAIR      82  67  60 NW8       29.99S                  
KEY WEST INTL  FAIR      81  70  69 N9        29.99S                  

STATION/POSITION SKY/WX   TEMP    WIND        PRES    WAVE   SWELL
                          AIR SEA DIR/SP/G            HT/PER HT/PER
                          (F)     (DEG/KT/KT) (MB)    (FT/S) (FT/S)
NAPLES                     75 76              1015.4F
DRY TORTUGAS               76     340/ 10/ 11 1015.8F
SAND KEY                   75                 1015.7F
SOMBRERO KEY               75                 1014.7F

$$
FLZ067-068-071>074-168-172>174-262200-
SOUTHEAST FLORIDA 
  
CITY           SKY/WX    TMP DP  RH WIND       PRES   REMARKS
W PALM BEACH   PTSUNNY   78  65  63 E7        29.95F                  
FT LAUDER-EXEC PTSUNNY   79  64  60 E9        29.95S                  
FT LAUDERDALE  PTSUNNY   79  65  62 E12       29.94F                  
POMPANO BEACH  PTSUNNY   78  65  63 E9        29.95F                  
PEMBROKE PINES PTSUNNY   83  63  50 E10       29.95F                  
OPA LOCKA      FAIR      86  60  41 VRB5      29.95F                  
MIAMI          PTSUNNY   86  60  41 VRB3      29.94F                  
WEST KENDALL   FAIR      87  59  38 W7        29.94F                  
HOMESTEAD      CLOUDY    80  66  60 SE8       29.93F                  

STATION/POSITION SKY/WX   TEMP    WIND        PRES    WAVE   SWELL
                          AIR SEA DIR/SP/G            HT/PER HT/PER
                          (F)     (DEG/KT/KT) (MB)    (FT/S) (FT/S)
VIRGINIA KEY               78 78              1013.6F
LAKE WORTH                 75 78              1015.3F
FOWEY ROCKS                77 78  140/  7/  8 1014.9F
SETTLEMENT POINT           75     310/  7/  9 1014.8F

$$